User: anonymous   Login
Location: *
(33.6842°N, 117.7925°W)
Time: 23:56:33
(UTC+00:00)
Language:

Cosmos 1295 Rocket - Orbit

View from above orbital plane
View from above orbital plane
View from above satellite
View from above satellite

Ground track
Ground track

The orbit data is extracted from the following two-line orbital elements,

1 12682U 81077B   19341.78061247  .00000024  00000-0  87193-5 0  9994
2 12682  82.9189  60.2895 0033217 331.5444  28.3899 13.78577228927353
Epoch (UTC): 07 December 2019 18:44:04
Eccentricity: 0.0033217
inclination: 82.9189°
perigee height: 944 km
apogee height: 993 km
right ascension of ascending node: 60.2895°
argument of perigee: 331.5444°
revolutions per day: 13.78577228
mean anomaly at epoch: 28.3899°
orbit number at epoch: 92735

The dashed part of the orbit path shows where the satellite is in the earth's shadow,  

DLR